Tracking 35237 objects as of 6-Sep-2026
HD Live streaming from Space Station
objects crossing your sky now

ORESAT0


ORESAT0 is no longer on orbit
ORESAT0 is classified as:


NORAD ID: 52017
Int'l Code: 2022-026K
Launch date: March 15, 2022
Source: United States (US)
Launch site: Kodiak Island, Alaska (KODAK)
Decay date: 2024-09-29

Uplink (MHz):
Downlink (MHz): 436.500/2425.000
Beacon (MHz): 436.500
Mode: 9k6FSK 96kGMSK 1M_DPSK CW
Call sign: KJ7SAT
Status: Reentered

Your satellite tracking list
Your tracking list is empty




NASA's NSSDC Master Catalog

Two Line Element Set (TLE):
1 52017U 22026K   24273.45232859  .15962284  26361-5  29990-3 0  9995
2 52017  97.4545 295.1270 0013084 250.0501 109.9393 16.46521474142074
Source of the keplerian elements: AFSPC